Dyersburg, TN

3:55 AM CST on November 24, 2017 (GMT -0600)
Dyersburg Municipal

Weather History for KDYR - February, 2011

Change the Weather History Date:

Tuesday, February 1, 2011

  Actual Average Record
Temperature  
Mean Temperature 50 °F -  
Max Temperature 60 °F 45 °F 69 °F (2012)
Min Temperature 37 °F 32 °F 17 °F (2013)
Degree Days  
Heating Degree Days 16    
Moisture  
Dew Point 46 °F    
Average Humidity 78    
Maximum Humidity 82    
Minimum Humidity 70    
Precipitation  
Precipitation 0.98 in - - ()
Sea Level Pressure  
Sea Level Pressure 29.74 in    
Wind  
Wind Speed 8 mph (SE)    
Max Wind Speed 31 mph    
Max Gust Speed 45 mph    
Visibility 9 miles    
Events      
Averages and records for this station are not official NWS values.
T = Trace of Precipitation, MM = Missing Value Source: NWS Daily Summary

Daily Weather History Graph

Daily Weather History Graph

Search for Another Location

Airport or City:

Trip Planner

Search our weather history database for the weather conditions in past years. The results will help you decide how hot, cold, wet, or windy it might be!

Date:

Astronomy

Feb. 01, 2011 Rise Set
Actual Time 6:58 AM CST 5:24 PM CST
Civil Twilight 6:31 AM CST 5:51 PM CST
Nautical Twilight 6:00 AM CST 6:22 PM CST
Astronomical Twilight 5:30 AM CST 6:52 PM CST
Moon 5:54 AM CST (2/1) 4:20 PM CST (2/1)
Length of Visible Light 11h 19m
Length of Day
10h 25m
Waning Crescent, 2% of the Moon is Illuminated
Feb 1
Waning Crescent
Feb 2
New
Feb 11
First Quarter
Feb 18
Full
Feb 24
Last Quarter

Hourly Weather History & Observations

Time (CST) Temp. Windchill Dew Point Humidity Pressure Visibility Wind Dir Wind Speed Gust Speed Precip Events Conditions
12:15 AM 53.6 °F - 46.4 °F 77% 29.98 in 10.0 mi Calm Calm - N/A   Overcast
12:35 AM 53.6 °F - 46.4 °F 77% 29.98 in 10.0 mi Calm Calm - N/A   Overcast
12:55 AM 53.6 °F - 46.4 °F 77% 29.97 in 10.0 mi SSE 3.5 mph - N/A   Overcast
1:15 AM 53.6 °F - 46.4 °F 77% 29.97 in 10.0 mi Calm Calm - N/A   Overcast
1:35 AM 53.6 °F - 46.4 °F 77% 29.97 in 10.0 mi SE 3.5 mph - N/A   Overcast
1:55 AM 53.6 °F - 46.4 °F 77% 29.97 in 10.0 mi Calm Calm - N/A   Overcast
2:15 AM 53.6 °F - 46.4 °F 77% 29.96 in 10.0 mi ESE 3.5 mph - N/A   Overcast
2:35 AM 53.6 °F - 46.4 °F 77% 29.96 in 9.0 mi SSE 3.5 mph - N/A   Overcast
2:55 AM 53.6 °F - 46.4 °F 77% 29.95 in 10.0 mi SE 4.6 mph - N/A   Overcast
3:15 AM 53.6 °F - 46.4 °F 77% 29.93 in 10.0 mi SE 5.8 mph - N/A   Overcast
3:35 AM 53.6 °F - 46.4 °F 77% 29.93 in 10.0 mi SE 5.8 mph - N/A   Overcast
3:55 AM 53.6 °F - 46.4 °F 77% 29.93 in 10.0 mi SE 5.8 mph - N/A   Overcast
4:15 AM 53.6 °F - 46.4 °F 77% 29.92 in 10.0 mi SE 8.1 mph - N/A   Overcast
4:55 AM 53.6 °F - 46.4 °F 77% 29.93 in 10.0 mi SSE 8.1 mph - N/A   Overcast
5:15 AM 53.6 °F - 46.4 °F 77% 29.91 in 10.0 mi SSE 11.5 mph 16.1 mph N/A   Overcast
5:35 AM 53.6 °F - 46.4 °F 77% 29.90 in 10.0 mi SE 10.4 mph - N/A   Overcast
5:55 AM 53.6 °F - 46.4 °F 77% 29.89 in 10.0 mi SE 9.2 mph - N/A   Overcast
6:15 AM 53.6 °F - 46.4 °F 77% 29.89 in 10.0 mi SE 9.2 mph - N/A   Overcast
6:35 AM 53.6 °F - 46.4 °F 77% 29.87 in 10.0 mi ESE 8.1 mph - N/A   Overcast
7:15 AM 53.6 °F - 46.4 °F 77% 29.85 in 10.0 mi ESE 9.2 mph - N/A   Overcast
7:35 AM 53.6 °F - 46.4 °F 77% 29.82 in 10.0 mi East 10.4 mph 18.4 mph N/A   Mostly Cloudy
7:55 AM 53.6 °F - 46.4 °F 77% 29.81 in 10.0 mi ESE 12.7 mph 18.4 mph N/A   Overcast
8:15 AM 53.6 °F - 46.4 °F 77% 29.81 in 10.0 mi ESE 10.4 mph 17.3 mph N/A   Overcast
8:35 AM 53.6 °F - 46.4 °F 77% 29.81 in 10.0 mi ESE 11.5 mph 19.6 mph N/A   Overcast
8:55 AM 53.6 °F - 46.4 °F 77% 29.77 in 9.0 mi East 9.2 mph 18.4 mph 0.01 in   Overcast
9:15 AM 53.6 °F - 46.4 °F 77% 29.76 in 10.0 mi ESE 10.4 mph - N/A   Overcast
9:35 AM 53.6 °F - 46.4 °F 77% 29.76 in 10.0 mi ESE 10.4 mph - N/A   Overcast
9:55 AM 53.6 °F - 46.4 °F 77% 29.76 in 10.0 mi SE 9.2 mph - 0.02 in   Overcast
10:15 AM 53.6 °F - 46.4 °F 77% 29.74 in 9.0 mi ESE 9.2 mph - 0.06 in   Overcast
10:35 AM 53.6 °F - 46.4 °F 77% 29.73 in 9.0 mi East 6.9 mph - 0.09 in   Overcast
10:55 AM 53.6 °F - 46.4 °F 77% 29.69 in 8.0 mi East 10.4 mph - 0.16 in   Overcast
11:15 AM 53.6 °F - 46.4 °F 77% 29.67 in 6.0 mi ESE 10.4 mph - 0.07 in   Overcast
11:35 AM 53.6 °F - 46.4 °F 77% 29.66 in 5.0 mi ESE 11.5 mph 17.3 mph 0.19 in   Overcast
11:55 AM 53.6 °F - 48.2 °F 82% 29.62 in 5.0 mi ESE 11.5 mph 21.9 mph 0.33 in   Overcast
12:15 PM 53.6 °F - 48.2 °F 82% 29.61 in 7.0 mi SE 17.3 mph 21.9 mph 0.11 in   Overcast
12:35 PM 53.6 °F - 48.2 °F 82% 29.58 in 8.0 mi SE 13.8 mph 23.0 mph 0.17 in   Overcast
12:55 PM 53.6 °F - 48.2 °F 82% 29.56 in 9.0 mi SE 16.1 mph 24.2 mph 0.23 in   Overcast
1:15 PM 53.6 °F - 48.2 °F 82% 29.53 in 9.0 mi SE 18.4 mph 25.3 mph 0.05 in   Overcast
1:35 PM 53.6 °F - 48.2 °F 82% 29.50 in 8.0 mi SE 17.3 mph 28.8 mph 0.11 in   Overcast
1:55 PM 53.6 °F - 48.2 °F 82% 29.50 in 8.0 mi SE 16.1 mph 21.9 mph 0.14 in   Overcast
2:15 PM 53.6 °F - 48.2 °F 82% 29.49 in 5.0 mi SSE 12.7 mph 19.6 mph 0.05 in   Overcast
2:35 PM 55.4 °F - 48.2 °F 77% 29.45 in 10.0 mi SE 15.0 mph 21.9 mph 0.09 in   Overcast
2:55 PM 55.4 °F - 50.0 °F 82% 29.41 in 10.0 mi SSE 16.1 mph 26.5 mph 0.09 in   Overcast
3:15 PM 55.4 °F - 50.0 °F 82% 29.42 in 10.0 mi SSE 13.8 mph 20.7 mph N/A   Overcast
3:35 PM 57.2 °F - 51.8 °F 82% 29.45 in 10.0 mi South 12.7 mph 23.0 mph N/A   Overcast
3:55 PM 59.0 °F - 51.8 °F 77% 29.43 in 10.0 mi South 10.4 mph 21.9 mph N/A   Overcast
4:15 PM 60.8 °F - 51.8 °F 72% 29.47 in 10.0 mi WSW 31.1 mph 44.9 mph N/A   Mostly Cloudy
4:35 PM 48.2 °F - 41.0 °F 76% 29.53 in 10.0 mi West 28.8 mph 38.0 mph N/A   Overcast
4:55 PM 42.8 °F 33.3 °F 35.6 °F 76% 29.56 in 10.0 mi West 24.2 mph 34.5 mph N/A   Overcast
5:15 PM 42.8 °F 33.1 °F 33.8 °F 70% 29.59 in 10.0 mi West 25.3 mph 33.4 mph N/A   Overcast
5:35 PM 41.0 °F 31.1 °F 32.0 °F 70% 29.61 in 10.0 mi West 23.0 mph 32.2 mph N/A   Overcast
5:55 PM 39.2 °F 29.6 °F 32.0 °F 75% 29.63 in 9.0 mi West 19.6 mph 27.6 mph N/A   Overcast
6:15 PM 37.4 °F 26.9 °F 30.2 °F 75% 29.66 in 10.0 mi West 20.7 mph 29.9 mph N/A   Overcast
6:35 PM 35.6 °F 24.2 °F 28.4 °F 75% 29.70 in 10.0 mi WSW 21.9 mph 29.9 mph N/A   Overcast
6:55 PM 33.8 °F 22.2 °F 24.8 °F 70% 29.73 in 10.0 mi West 20.7 mph 28.8 mph N/A   Overcast
7:15 PM 33.8 °F 22.8 °F 24.8 °F 70% 29.75 in 10.0 mi WSW 18.4 mph 31.1 mph N/A   Overcast
7:35 PM 32.0 °F 21.2 °F 24.8 °F 75% 29.78 in 10.0 mi West 16.1 mph 26.5 mph N/A   Overcast
7:55 PM 30.2 °F 16.8 °F 21.2 °F 69% 29.80 in 10.0 mi West 23.0 mph 26.5 mph N/A   Overcast
8:15 PM 30.2 °F 18.1 °F 19.4 °F 64% 29.82 in 10.0 mi West 18.4 mph 27.6 mph N/A   Overcast
8:35 PM 30.2 °F 18.9 °F 17.6 °F 60% 29.83 in 10.0 mi West 16.1 mph 31.1 mph N/A   Overcast
8:55 PM 28.4 °F 15.8 °F 17.6 °F 64% 29.85 in 10.0 mi West 18.4 mph 25.3 mph N/A   Overcast
9:15 PM 28.4 °F 14.1 °F 17.6 °F 64% 29.87 in 10.0 mi West 24.2 mph 31.1 mph N/A   Overcast
9:35 PM 28.4 °F 13.8 °F 17.6 °F 64% 29.89 in 10.0 mi West 25.3 mph 33.4 mph N/A   Overcast
9:55 PM 28.4 °F 14.1 °F 15.8 °F 59% 29.91 in 10.0 mi West 24.2 mph 32.2 mph N/A   Overcast
10:15 PM 28.4 °F 15.1 °F 15.8 °F 59% 29.92 in 10.0 mi West 20.7 mph 29.9 mph N/A   Overcast
10:35 PM 28.4 °F 16.2 °F 15.8 °F 59% 29.94 in 10.0 mi West 17.3 mph 28.8 mph N/A   Overcast
11:15 PM 26.6 °F 12.4 °F 14.0 °F 59% 29.98 in 10.0 mi West 21.9 mph 31.1 mph N/A   Overcast
11:35 PM 26.6 °F 13.1 °F 12.2 °F 55% 30.00 in 10.0 mi West 19.6 mph 26.5 mph N/A   Overcast
11:55 PM 26.6 °F 12.4 °F 12.2 °F 55% 30.01 in 10.0 mi West 21.9 mph 27.6 mph N/A   Overcast